[[{"header":{"parameterUnit":"m.s-1","parameterCategory":1,"la1":30.2991,"la2":30.254,"lo1":-89.0895,"lo2":-89.0444,"dy":0.0017,"dx":0.0017,"nx":28,"ny":28,"refTime":"2024-11-29T09:00:00:Z","depth":0,"parameterNumber":2,"parameterNumberName":"U-component_of_WINDS"},"data":[0,0,0,0,0,0,0,0,0,0,0,0,0,0,0,0,0,0,0,0,0,0,0,0,0,0,0,0,0,0,0,0,0,0,0,0,0,0,0,0,0,0,0,0,0,0,0,0,0,0,0,0,0,0,0,0,0,0,-1.9773,-1.9773,0,-1.9809,-1.9809,-1.981,-1.9745,-1.9743,-1.9741,-1.9739,-1.9778,-1.9781,-1.9784,0,0,0,0,0,0,0,0,0,0,0,0,0,-1.965,-1.9652,-1.9773,-1.9773,-1.9774,-1.9809,-1.9809,-1.981,-1.9746,-1.9743,-1.9741,-1.9738,-1.9777,-1.9781,-1.9784,0,0,0,0,0,0,0,0,0,0,0,0,0,-1.9696,-1.9653,-1.9773,-1.9746,-1.9744,-1.9809,-1.9809,-1.981,-1.9746,-1.9743,-1.974,-1.9737,-1.9776,-1.978,-1.9785,-1.9878,0,0,-1.9799,-1.9801,0,0,0,0,0,0,0,0,-1.9694,-1.9701,-1.975,-1.9748,-1.9746,-1.9769,-1.978,-1.9833,-1.9747,-1.9746,-1.9739,-1.9735,-1.9778,-1.9782,-1.9796,-1.988,-1.9882,-1.9799,-1.9802,-1.9804,-1.9805,0,0,0,0,0,0,0,-1.9691,-1.9699,-1.9787,-1.975,-1.9748,-1.9732,-1.9736,-1.979,-1.978,-1.9745,-1.9741,-1.9746,-1.9776,-1.9792,-1.9797,-1.9882,-1.9799,-1.9803,-1.9806,-1.9808,-2.0043,-2.0046,0,0,0,0,0,0,-1.9691,-1.9697,-1.9786,-1.9788,-1.9711,-1.9737,-1.9741,-1.9765,-1.9779,-1.9778,-1.9749,-1.9743,-1.9786,-1.9791,-1.9798,-1.9907,-1.9804,-1.9808,-1.9811,-2.004,-2.0044,-2.0048,0,0,0,0,0,0,-1.9688,-1.9699,-1.9785,-1.9741,-1.9751,-1.9743,-1.9771,-1.9768,-1.9783,-1.9781,-1.9779,-1.9766,-1.9783,-1.9791,-1.9858,-1.9908,-1.981,-1.9815,-2.0035,-2.0041,-2.0046,-2.0128,0,0,0,0,0,0,-1.9685,-1.9699,-1.9734,-1.9743,-1.9754,-1.9845,-1.9774,-1.9771,-1.9791,-1.9783,-1.9797,-1.9797,-1.9781,-1.9852,-1.9863,-1.9912,-1.9818,-2.0031,-2.0038,-2.0044,-2.0121,-2.0135,-2.0147,0,0,0,0,0,-1.9681,-1.9756,-1.9736,-1.9747,-1.9798,-1.9848,-1.9854,-1.9834,-1.9795,-1.9831,-1.9829,-1.9796,-1.99,-1.9859,-1.9871,-1.9923,-2.0028,-2.0036,-2.0044,-2.0115,-2.0132,-2.0147,0,0,0,0,0,0,-1.9755,-1.9757,-1.9735,-1.9815,-1.9832,-1.9837,-1.9881,-1.9854,-1.9883,-1.9875,-1.985,-1.9853,-1.9925,-1.993,-1.9885,-2.0013,-1.9957,-1.9968,-2.0007,-2.0024,-2.0037,-2.0035,-1.9822,0,0,0,0,0,-1.9781,-1.9821,-1.9821,-1.9892,-1.9901,-1.989,-1.9911,-1.9894,-1.991,-1.9917,-1.9921,-1.9938,-1.9975,-1.9999,-2.0033,-2.012,-2.0122,-2.0162,-2.0175,-2.0186,-2.0196,-2.0242,-2.0259,-2.0073,-2.0073,-2.0073,0,0,-1.9835,-1.9841,-1.9868,-1.9907,-1.9918,-1.996,-1.9896,-1.9944,-1.9975,-1.9925,-1.9988,-1.9991,-2.0009,-2.0086,-2.012,-2.0093,-2.0247,-2.0196,-2.0205,-2.0209,-2.0252,-2.0269,-2.0285,-2.0079,-2.0078,-2.0077,0,0,-1.9955,-1.9963,-2.0023,-2.0034,-2.0051,-2.0042,-2.0057,-2.0065,-2.0065,-2.0128,-2.0091,-2.0127,-2.0191,-2.0205,-2.022,-2.0343,-2.0314,-2.0355,-2.0426,-2.0471,-2.0485,-2.0498,-2.0542,-2.0558,-2.0364,-2.0364,-2.0364,0,-2.002,-2.0082,-2.0057,-2.0107,-2.0125,-2.008,-2.014,-2.0153,-2.018,-2.0194,-2.0162,-2.0239,-2.0248,-2.0328,-2.0358,-2.0372,-2.0387,-2.0354,-2.0485,-2.0498,-2.0509,-2.0551,-2.0568,-2.0369,-2.0369,-2.0368,-2.0368,0,-2.0161,-2.0204,-2.0251,-2.0277,-2.03,-2.0355,-2.0339,-2.0365,-2.0346,-2.0341,-2.0405,-2.0413,-2.0447,-2.0464,-2.0447,-2.0542,-2.0524,-2.0489,-2.0433,-2.0532,-2.0571,-2.0587,-2.0376,-2.0374,-2.0373,-2.0372,0,0,-2.0332,-2.0341,-2.0359,-2.0369,-2.0383,-2.0416,-2.0468,-2.0501,-2.0524,-2.0543,-2.0587,-2.064,-2.0608,-2.0625,-2.0608,-2.0648,-2.0744,-2.0608,-2.0608,-2.0633,-2.0849,-2.0876,-2.0895,-2.0724,-2.0727,-2.0729,-2.0847,0,-2.0451,-2.054,-2.0519,-2.0608,-2.0647,-2.0603,-2.0649,-2.0662,-2.0659,-2.0692,-2.0687,-2.0726,-2.068,-2.069,-2.0727,-2.0725,-2.0787,-2.0716,-2.0765,-2.0767,-2.0763,-2.0915,-2.0944,-2.1055,-2.0862,-2.0865,-2.0867,0,-2.0602,-2.0626,-2.0719,-2.0724,-2.074,-2.0782,-2.0808,-2.084,-2.0854,-2.0849,-2.0867,-2.0842,-2.0894,-2.0836,-2.0907,-2.0859,-2.0877,-2.0879,-2.0883,-2.0888,-2.0824,-2.0925,-2.109,-2.1107,-2.089,-2.0889,-2.0887,0,-2.0718,-2.0773,-2.0835,-2.0845,-2.0853,-2.0883,-2.0888,-2.0899,-2.0919,-2.0943,-2.0955,-2.0985,-2.1002,-2.1025,-2.1009,-2.0968,-2.1083,-2.1024,-2.108,-2.1081,-2.1107,-2.1106,-2.1279,-2.1118,-2.1118,-2.1117,-2.1117,0,-2.0854,-2.0912,-2.0886,-2.0925,-2.0989,-2.0963,-2.1027,-2.1027,-2.1036,-2.1074,-2.1038,-2.1074,-2.105,-2.1084,-2.1071,-2.1132,-2.114,-2.1137,-2.1133,-2.1141,-2.1141,-2.1154,-2.1146,-2.1122,-2.1121,-2.112,-2.1119,0,-2.0994,-2.0979,-2.1044,-2.1046,-2.1047,-2.1094,-2.1096,-2.1132,-2.1124,-2.1172,-2.1182,-2.1171,-2.1209,-2.1194,-2.1235,-2.1226,-2.1304,-2.129,-2.1299,-2.1296,-2.1353,-2.1349,-2.1541,-2.1565,-2.1388,-2.139,-2.1391,0,-2.1082,-2.1126,-2.1132,-2.1154,-2.1161,-2.1197,-2.1217,-2.1193,-2.1215,-2.1233,-2.1266,-2.1301,-2.1328,-2.1391,-2.1387,-2.1418,-2.1404,-2.1469,-2.1409,-2.1415,-2.1406,-2.1404,-2.1408,-2.1482,-2.1484,-2.1486,-2.1487,0,-2.1241,-2.1231,-2.126,-2.1287,-2.1311,-2.1332,-2.1349,-2.1369,-2.1345,-2.1372,-2.141,-2.1431,-2.1471,-2.1507,-2.1534,-2.1539,-2.151,-2.1506,-2.1521,-2.153,-2.1534,-2.1533,-2.1333,-2.1502,-2.1501,-2.15,-2.1499,-2.1498,-2.1359,-2.1395,-2.1404,-2.1438,-2.1447,-2.1464,-2.1497,-2.1493,-2.1524,-2.1554,-2.1538,-2.1582,-2.1593,-2.1627,-2.1636,-2.167,-2.1645,-2.1666,-2.1672,-2.1678,-2.1685,-2.1527,-2.1675,-2.1674,-2.1674,-2.1674,-2.1673,0,-2.1516,-2.1519,-2.155,-2.1574,-2.16,-2.1568,-2.1585,-2.161,-2.1649,-2.1661,-2.1687,-2.173,-2.1764,-2.1761,-2.1792,-2.182,-2.1807,-2.1829,-2.1827,-2.1829,-2.1706,-2.169,-2.1839,-2.1839,-2.1839,-2.1838,-2.1838,-2.1838,-2.1601,-2.166,-2.1651,-2.1715,-2.1717,-2.1759,-2.1772,-2.1786,-2.1796,-2.1846,-2.1872,-2.187,-2.1876,-2.1907,-2.1936,-2.1934,-2.1948,-2.1975,-2.1968,-2.1854,-2.1838,-2.1822,-2.1807,-2.1978,-2.1978,-2.2088,-2.2089,-2.209]},{"header":{"parameterUnit":"m.s-1","parameterCategory":1,"la1":30.2991,"la2":30.254,"lo1":-89.0895,"lo2":-89.0444,"dy":0.0017,"dx":0.0017,"nx":28,"ny":28,"refTime":"2024-11-29T09:00:00:Z","depth":0,"parameterNumber":3,"parameterNumberName":"V-component_of_WINDS"},"data":[0,0,0,0,0,0,0,0,0,0,0,0,0,0,0,0,0,0,0,0,0,0,0,0,0,0,0,0,0,0,0,0,0,0,0,0,0,0,0,0,0,0,0,0,0,0,0,0,0,0,0,0,0,0,0,0,0,0,-0.5835,-0.5836,0,-0.5966,-0.5968,-0.5969,-0.6032,-0.6032,-0.6032,-0.6032,-0.6167,-0.6171,-0.6175,0,0,0,0,0,0,0,0,0,0,0,0,0,-0.5638,-0.5641,-0.5835,-0.5836,-0.5838,-0.5966,-0.5968,-0.597,-0.6032,-0.6032,-0.6032,-0.6032,-0.6166,-0.6171,-0.6175,0,0,0,0,0,0,0,0,0,0,0,0,0,-0.5742,-0.5642,-0.5835,-0.5885,-0.589,-0.5966,-0.5968,-0.597,-0.6032,-0.6032,-0.6032,-0.6032,-0.6165,-0.617,-0.6176,-0.6212,0,0,-0.6192,-0.6195,0,0,0,0,0,0,0,0,-0.5736,-0.5749,-0.5876,-0.5881,-0.5888,-0.5983,-0.5948,-0.6051,-0.6032,-0.5978,-0.6032,-0.6032,-0.6106,-0.6116,-0.6141,-0.6218,-0.6224,-0.6193,-0.6196,-0.6199,-0.62,0,0,0,0,0,0,0,-0.5729,-0.5744,-0.5887,-0.5877,-0.5885,-0.59,-0.5915,-0.5968,-0.6041,-0.5983,-0.5988,-0.6002,-0.6109,-0.6136,-0.6145,-0.6226,-0.6193,-0.6198,-0.6201,-0.6203,-0.6338,-0.6338,0,0,0,0,0,0,-0.5713,-0.5737,-0.5883,-0.5891,-0.581,-0.5904,-0.592,-0.5952,-0.6041,-0.6054,-0.6002,-0.6005,-0.6127,-0.6138,-0.615,-0.6198,-0.6199,-0.6204,-0.6207,-0.6337,-0.6338,-0.6338,0,0,0,0,0,0,-0.5709,-0.5726,-0.5877,-0.5815,-0.5836,-0.5908,-0.5943,-0.5955,-0.5981,-0.6055,-0.6069,-0.6016,-0.6127,-0.6142,-0.6196,-0.6203,-0.6206,-0.6211,-0.6337,-0.6338,-0.6338,-0.6293,0,0,0,0,0,0,-0.5703,-0.5724,-0.5738,-0.5815,-0.5839,-0.5921,-0.5943,-0.5958,-0.5991,-0.5995,-0.6072,-0.6084,-0.6128,-0.6187,-0.6201,-0.6211,-0.6216,-0.6337,-0.6337,-0.6338,-0.6294,-0.6292,-0.629,0,0,0,0,0,-0.5696,-0.5721,-0.5738,-0.5756,-0.5859,-0.5921,-0.5935,-0.5984,-0.5991,-0.6006,-0.6053,-0.6082,-0.62,-0.6192,-0.6208,-0.622,-0.6337,-0.6337,-0.6338,-0.6295,-0.6292,-0.629,0,0,0,0,0,0,-0.5643,-0.5732,-0.5753,-0.5803,-0.5854,-0.5931,-0.5952,-0.598,-0.603,-0.6032,-0.6091,-0.6108,-0.6156,-0.6193,-0.6183,-0.6259,-0.6271,-0.6275,-0.6233,-0.6231,-0.6229,-0.6219,-0.622,0,0,0,0,0,-0.5638,-0.5681,-0.5756,-0.5793,-0.5818,-0.588,-0.5909,-0.5943,-0.5998,-0.602,-0.6071,-0.6124,-0.6173,-0.6204,-0.6253,-0.63,-0.6317,-0.6316,-0.6313,-0.6311,-0.6314,-0.6341,-0.6341,-0.634,-0.634,-0.634,0,0,-0.5627,-0.568,-0.5704,-0.5784,-0.5827,-0.5871,-0.5898,-0.5943,-0.5975,-0.6027,-0.608,-0.6119,-0.6182,-0.6232,-0.6256,-0.6264,-0.6318,-0.6312,-0.631,-0.6314,-0.6342,-0.6342,-0.6342,-0.634,-0.634,-0.634,0,0,-0.5629,-0.5673,-0.5709,-0.5752,-0.5816,-0.5858,-0.5866,-0.5939,-0.5967,-0.6021,-0.606,-0.61,-0.6183,-0.6226,-0.6258,-0.6274,-0.6303,-0.6289,-0.6278,-0.6303,-0.6304,-0.6304,-0.631,-0.6311,-0.6291,-0.6291,-0.6291,0,-0.5607,-0.5674,-0.5725,-0.5767,-0.5801,-0.5848,-0.5885,-0.5924,-0.6001,-0.6023,-0.6031,-0.6136,-0.6181,-0.6241,-0.6245,-0.627,-0.6282,-0.6281,-0.6299,-0.63,-0.6301,-0.6308,-0.631,-0.6289,-0.6289,-0.629,-0.629,0,-0.5643,-0.5689,-0.571,-0.5783,-0.5819,-0.5858,-0.5915,-0.5946,-0.5975,-0.6015,-0.607,-0.6126,-0.6187,-0.6203,-0.6233,-0.6268,-0.6271,-0.6288,-0.6301,-0.6299,-0.6305,-0.6308,-0.6286,-0.6287,-0.6287,-0.6288,0,0,-0.5618,-0.5717,-0.5724,-0.5757,-0.5831,-0.5867,-0.5908,-0.5967,-0.5992,-0.6043,-0.6079,-0.6148,-0.6164,-0.6201,-0.6236,-0.6258,-0.6267,-0.6273,-0.6275,-0.627,-0.6308,-0.6295,-0.6297,-0.6285,-0.6286,-0.6287,-0.6303,0,-0.563,-0.5706,-0.5752,-0.5809,-0.5851,-0.5896,-0.5931,-0.598,-0.6019,-0.606,-0.6103,-0.615,-0.6168,-0.619,-0.6214,-0.6261,-0.6275,-0.626,-0.632,-0.6321,-0.6303,-0.63,-0.6287,-0.6299,-0.6306,-0.6306,-0.6307,0,-0.5655,-0.5705,-0.5765,-0.5833,-0.5853,-0.5884,-0.5941,-0.598,-0.6037,-0.6063,-0.6103,-0.6138,-0.6183,-0.6191,-0.6254,-0.6243,-0.627,-0.6296,-0.6298,-0.6306,-0.6314,-0.6309,-0.6305,-0.6307,-0.6311,-0.6311,-0.6311,0,-0.563,-0.5712,-0.5759,-0.5786,-0.5866,-0.5887,-0.5922,-0.5978,-0.601,-0.606,-0.6081,-0.6136,-0.6166,-0.6207,-0.6256,-0.6258,-0.6314,-0.6327,-0.6337,-0.6336,-0.6348,-0.6346,-0.6348,-0.6364,-0.6364,-0.6364,-0.6364,0,-0.564,-0.5675,-0.5748,-0.5777,-0.5818,-0.587,-0.5909,-0.5947,-0.5997,-0.6034,-0.6076,-0.611,-0.6171,-0.6213,-0.6251,-0.6297,-0.6311,-0.6333,-0.6343,-0.633,-0.6327,-0.6349,-0.6349,-0.6364,-0.6364,-0.6364,-0.6364,0,-0.562,-0.567,-0.5724,-0.5795,-0.5814,-0.584,-0.5902,-0.5931,-0.5971,-0.6017,-0.6031,-0.6094,-0.6145,-0.6197,-0.6266,-0.6292,-0.6336,-0.635,-0.6317,-0.6323,-0.633,-0.6329,-0.6347,-0.6352,-0.6363,-0.6363,-0.6363,0,-0.5622,-0.5651,-0.5724,-0.5752,-0.5785,-0.5829,-0.5861,-0.5914,-0.5946,-0.6011,-0.6033,-0.6086,-0.6132,-0.6211,-0.6263,-0.6316,-0.6331,-0.6334,-0.634,-0.6325,-0.6332,-0.633,-0.6333,-0.6332,-0.6332,-0.6331,-0.6331,0,-0.5622,-0.5645,-0.569,-0.5744,-0.5781,-0.5826,-0.5872,-0.5892,-0.5954,-0.5988,-0.604,-0.6075,-0.6145,-0.6198,-0.6256,-0.6292,-0.6322,-0.6329,-0.6334,-0.6321,-0.6301,-0.6312,-0.6312,-0.6328,-0.6329,-0.6329,-0.6329,-0.6329,-0.5614,-0.5641,-0.5696,-0.5745,-0.5785,-0.5827,-0.5858,-0.5901,-0.5945,-0.6005,-0.6033,-0.6085,-0.614,-0.6222,-0.6257,-0.6299,-0.6307,-0.6315,-0.6317,-0.6318,-0.6315,-0.6293,-0.631,-0.631,-0.631,-0.631,-0.631,0,-0.5616,-0.5654,-0.5698,-0.5761,-0.5798,-0.5822,-0.5874,-0.5904,-0.5949,-0.5998,-0.6041,-0.6101,-0.6152,-0.6207,-0.6261,-0.6284,-0.6299,-0.6296,-0.6296,-0.6303,-0.6304,-0.6294,-0.6283,-0.6283,-0.6283,-0.6283,-0.6283,-0.6283,-0.5622,-0.5668,-0.5697,-0.5763,-0.5801,-0.5852,-0.588,-0.5918,-0.5957,-0.6021,-0.6063,-0.6099,-0.615,-0.6208,-0.6256,-0.6271,-0.6289,-0.6283,-0.6301,-0.6301,-0.6303,-0.6305,-0.6296,-0.6286,-0.6286,-0.6297,-0.6298,-0.6298]}]]